Location: Eimen
(51.8766°N, 9.7806°E)
Time: 16:27:22
(UTC+00:00)

Cosmos 1954 Rocket - Pass Details

Date: 23 May 2024
Orbit: 750 x 778 km, 74.0° (Epoch: 24 June)

Event Time Altitude Azimuth Distance (km) Brightness Sun altitude
Exits shadow 00:48:51 23° 212° (SSW) 1,630 5.1 -14.8°
Maximum altitude 00:52:17 78° 295° (WNW) 802 4.1 -14.6°
Drops below altitude 10° 00:57:37 10° 23° (NNE) 2,340 8.0 -14.3°
Sets 01:00:01 0° 25° (NNE) 3,269 9.3 -14.1°
